Location: Namasale
(1.5000°N, 32.6167°E)
Time: 23:02:38
(UTC+00:00)

Vanguard 3 - Pass Details

Date: 19 April 2021
Orbit: 507 x 3262 km, 33.4° (Epoch: 17 May)

Event Time Altitude Azimuth Distance (km) Brightness Sun altitude
Rises 16:35:03 0° 222° (SW) 7,202 12.4 -11.1°
Reaches altitude 10° 16:41:10 10° 213° (SSW) 6,024 11.8 -12.6°
Maximum altitude 16:56:13 32° 157° (SSE) 3,629 10.1 -16.2°
Enters shadow 17:02:45 22° 115° (ESE) 3,654 9.8 -17.8°
